Location: Boiro
(42.6475°N, 8.8834°W)
Time: 16:47:09
(UTC+01:00)

Vanguard 2 - Pass Details

Date: 04 December 2021
Orbit: 553 x 2936 km, 32.9° (Epoch: 21 January)

Event Time Altitude Azimuth Distance (km) Brightness Sun altitude
Rises 19:12:06 0° 264° (W) 3,786 12.8 -12.5°
Reaches altitude 10° 19:14:46 10° 252° (WSW) 3,108 12.1 -13.0°
Maximum altitude 19:21:23 29° 196° (SSW) 2,606 10.6 -14.1°
Drops below altitude 10° 19:31:10 10° 144° (SE) 4,688 11.3 -15.8°
Sets 19:36:20 0° 135° (SE) 6,078 11.8 -16.8°
